Time,TemperatureF,DewpointF,PressureIn,WindDirection,WindDirectionDegrees,WindSpeedMPH,WindSpeedGustMPH,Humidity,HourlyPrecipIn,Conditions,Clouds,dailyrainin,SoftwareType,DateUTC
2013-08-21 00:01:00,69.0,66.3,30.10,West,275,4.0,5.0,91,0.00,,,0.00,WeatherCatV1.01B143,2013-08-21 04:01:00,
2013-08-21 00:06:00,68.8,66.1,30.10,WNW,282,4.0,5.0,91,0.00,,,0.00,WeatherCatV1.01B143,2013-08-21 04:06:00,
2013-08-21 00:11:00,68.8,66.1,30.10,West,275,2.0,6.0,91,0.00,,,0.00,WeatherCatV1.01B143,2013-08-21 04:11:00,
2013-08-21 00:16:00,68.8,66.1,30.10,WNW,285,5.0,6.0,91,0.00,,,0.00,WeatherCatV1.01B143,2013-08-21 04:16:00,
2013-08-21 00:21:00,69.0,66.3,30.10,WNW,282,5.0,6.0,91,0.00,,,0.00,WeatherCatV1.01B143,2013-08-21 04:21:00,
2013-08-21 00:26:00,69.1,66.4,30.10,WNW,290,4.0,6.0,91,0.00,,,0.00,WeatherCatV1.01B143,2013-08-21 04:26:00,
2013-08-21 00:31:00,69.1,66.4,30.10,WNW,302,4.0,6.0,91,0.00,,,0.00,WeatherCatV1.01B143,2013-08-21 04:31:00,
2013-08-21 00:36:00,69.2,66.5,30.10,WNW,287,6.0,7.0,91,0.00,,,0.00,WeatherCatV1.01B143,2013-08-21 04:36:00,
2013-08-21 00:41:00,69.4,66.7,30.10,WNW,290,4.0,7.0,91,0.00,,,0.00,WeatherCatV1.01B143,2013-08-21 04:41:00,
2013-08-21 00:46:00,69.5,66.8,30.10,West,281,5.0,6.0,91,0.00,,,0.00,WeatherCatV1.01B143,2013-08-21 04:46:00,
2013-08-21 00:51:00,69.6,66.8,30.10,WNW,299,5.0,6.0,91,0.00,,,0.00,WeatherCatV1.01B143,2013-08-21 04:51:00,
2013-08-21 00:56:00,69.7,66.9,30.10,WNW,299,4.0,7.0,91,0.00,,,0.00,WeatherCatV1.01B143,2013-08-21 04:56:00,
2013-08-21 01:01:00,69.7,66.9,30.10,WNW,287,3.0,6.0,91,0.00,,,0.00,WeatherCatV1.01B143,2013-08-21 05:01:00,
2013-08-21 01:06:00,69.7,66.9,30.10,WNW,285,2.0,6.0,91,0.00,,,0.00,WeatherCatV1.01B143,2013-08-21 05:06:00,
2013-08-21 01:11:00,69.7,66.9,30.10,WNW,285,4.0,5.0,91,0.00,,,0.00,WeatherCatV1.01B143,2013-08-21 05:11:00,
2013-08-21 01:16:00,69.6,66.8,30.10,WNW,290,2.0,5.0,91,0.00,,,0.00,WeatherCatV1.01B143,2013-08-21 05:16:00,
2013-08-21 01:21:00,69.5,66.8,30.10,WNW,295,4.0,6.0,91,0.00,,,0.00,WeatherCatV1.01B143,2013-08-21 05:21:00,
2013-08-21 01:26:00,69.5,66.8,30.10,WNW,291,4.0,5.0,91,0.00,,,0.00,WeatherCatV1.01B143,2013-08-21 05:26:00,
2013-08-21 01:31:00,69.5,66.8,30.10,West,277,4.0,6.0,91,0.00,,,0.00,WeatherCatV1.01B143,2013-08-21 05:31:00,
2013-08-21 01:36:00,69.4,66.7,30.10,WNW,295,3.0,4.0,91,0.00,,,0.00,WeatherCatV1.01B143,2013-08-21 05:36:00,
2013-08-21 01:41:00,69.4,66.7,30.10,NW,306,2.0,3.0,91,0.00,,,0.00,WeatherCatV1.01B143,2013-08-21 05:41:00,
2013-08-21 01:46:00,69.2,66.5,30.10,WNW,301,3.0,5.0,91,0.00,,,0.00,WeatherCatV1.01B143,2013-08-21 05:46:00,
2013-08-21 01:51:00,69.1,66.4,30.10,West,268,2.0,3.0,91,0.00,,,0.00,WeatherCatV1.01B143,2013-08-21 05:51:00,
2013-08-21 01:56:00,69.0,66.3,30.10,WNW,296,2.0,3.0,91,0.00,,,0.00,WeatherCatV1.01B143,2013-08-21 05:56:00,
2013-08-21 02:01:00,68.9,66.2,30.10,WNW,292,3.0,5.0,91,0.00,,,0.00,WeatherCatV1.01B143,2013-08-21 06:01:00,
2013-08-21 02:06:00,68.8,66.1,30.10,WNW,285,2.0,3.0,91,0.00,,,0.00,WeatherCatV1.01B143,2013-08-21 06:06:00,
2013-08-21 02:11:00,68.7,66.0,30.10,WNW,297,2.0,4.0,91,0.00,,,0.00,WeatherCatV1.01B143,2013-08-21 06:11:00,
2013-08-21 02:16:00,68.7,66.0,30.09,WNW,299,4.0,4.0,91,0.00,,,0.00,WeatherCatV1.01B143,2013-08-21 06:16:00,
2013-08-21 02:21:00,68.7,66.0,30.09,WNW,292,3.0,6.0,91,0.00,,,0.00,WeatherCatV1.01B143,2013-08-21 06:21:00,
2013-08-21 02:26:00,68.7,66.0,30.09,WNW,293,2.0,5.0,91,0.00,,,0.00,WeatherCatV1.01B143,2013-08-21 06:26:00,
2013-08-21 02:31:00,68.7,66.0,30.09,WNW,302,2.0,3.0,91,0.00,,,0.00,WeatherCatV1.01B143,2013-08-21 06:31:00,
2013-08-21 02:36:00,68.6,65.9,30.09,WNW,301,2.0,5.0,91,0.00,,,0.00,WeatherCatV1.01B143,2013-08-21 06:36:00,
2013-08-21 02:41:00,68.6,65.9,30.09,WNW,290,2.0,3.0,91,0.00,,,0.00,WeatherCatV1.01B143,2013-08-21 06:41:00,
2013-08-21 02:46:00,68.6,65.9,30.10,NW,306,2.0,4.0,91,0.00,,,0.00,WeatherCatV1.01B143,2013-08-21 06:46:00,
2013-08-21 02:51:00,68.6,65.9,30.10,WNW,301,0.0,1.0,91,0.00,,,0.00,WeatherCatV1.01B143,2013-08-21 06:51:00,
2013-08-21 02:56:00,68.6,65.9,30.10,West,264,0.0,1.0,91,0.00,,,0.00,WeatherCatV1.01B143,2013-08-21 06:56:00,
2013-08-21 03:01:00,68.5,65.8,30.10,West,265,0.0,0.0,91,0.00,,,0.00,WeatherCatV1.01B143,2013-08-21 07:01:00,
2013-08-21 03:06:00,68.4,65.7,30.10,WNW,298,0.0,0.0,91,0.00,,,0.00,WeatherCatV1.01B143,2013-08-21 07:06:00,
2013-08-21 03:11:00,68.3,65.6,30.10,WNW,297,0.0,1.0,91,0.00,,,0.00,WeatherCatV1.01B143,2013-08-21 07:11:00,
2013-08-21 03:16:00,68.3,65.6,30.10,NW,309,2.0,2.0,91,0.00,,,0.00,WeatherCatV1.01B143,2013-08-21 07:16:00,
2013-08-21 03:21:00,68.3,65.6,30.10,WNW,299,1.0,2.0,91,0.00,,,0.00,WeatherCatV1.01B143,2013-08-21 07:21:00,
2013-08-21 03:26:00,68.4,65.7,30.10,NW,305,2.0,3.0,91,0.00,,,0.00,WeatherCatV1.01B143,2013-08-21 07:26:00,
2013-08-21 03:31:00,68.5,65.8,30.10,WNW,301,2.0,3.0,91,0.00,,,0.00,WeatherCatV1.01B143,2013-08-21 07:31:00,
2013-08-21 03:36:00,68.5,65.8,30.10,NW,308,3.0,3.0,91,0.00,,,0.00,WeatherCatV1.01B143,2013-08-21 07:36:00,
2013-08-21 03:41:00,68.6,65.9,30.10,WNW,303,2.0,4.0,91,0.00,,,0.00,WeatherCatV1.01B143,2013-08-21 07:41:00,
2013-08-21 03:46:00,68.5,65.8,30.10,WNW,295,0.0,2.0,91,0.00,,,0.00,WeatherCatV1.01B143,2013-08-21 07:46:00,
2013-08-21 03:51:00,68.3,65.6,30.10,West,269,0.0,1.0,91,0.00,,,0.00,WeatherCatV1.01B143,2013-08-21 07:51:00,
2013-08-21 03:56:00,68.1,65.4,30.10,West,269,0.0,0.0,91,0.00,,,0.00,WeatherCatV1.01B143,2013-08-21 07:56:00,
2013-08-21 04:01:00,67.9,65.2,30.10,North,359,0.0,0.0,91,0.00,,,0.00,WeatherCatV1.01B143,2013-08-21 08:01:00,
2013-08-21 04:06:00,67.9,65.2,30.10,North,8,0.0,0.0,91,0.00,,,0.00,WeatherCatV1.01B143,2013-08-21 08:06:00,
2013-08-21 04:11:00,68.0,65.3,30.10,NNE,30,0.0,1.0,91,0.00,,,0.00,WeatherCatV1.01B143,2013-08-21 08:11:00,
2013-08-21 04:16:00,67.9,65.2,30.10,NE,46,0.0,0.0,91,0.00,,,0.00,WeatherCatV1.01B143,2013-08-21 08:16:00,
2013-08-21 04:21:00,68.0,65.3,30.10,North,359,0.0,1.0,91,0.00,,,0.00,WeatherCatV1.01B143,2013-08-21 08:21:00,
2013-08-21 04:26:00,67.9,64.9,30.10,North,359,0.0,0.0,90,0.00,,,0.00,WeatherCatV1.01B143,2013-08-21 08:26:00,
2013-08-21 04:31:00,66.9,63.9,30.10,North,0,0.0,0.0,90,0.00,,,0.00,WeatherCatV1.01B143,2013-08-21 08:31:00,
2013-08-21 04:36:00,66.9,63.9,30.11,North,0,0.0,0.0,90,0.00,,,0.00,WeatherCatV1.01B143,2013-08-21 08:36:00,
2013-08-21 04:41:00,-999.0,-99.9,30.10,North,-999,-999.0,0.0,-999,0.00,,,0.00,WeatherCatV1.01B143,2013-08-21 08:41:00,
2013-08-21 04:46:00,-999.0,-99.9,30.10,North,-999,-999.0,0.0,-999,0.00,,,0.00,WeatherCatV1.01B143,2013-08-21 08:46:00,
2013-08-21 04:51:00,-999.0,-99.9,30.10,North,-999,-999.0,0.0,-999,0.00,,,0.00,WeatherCatV1.01B143,2013-08-21 08:51:00,
2013-08-21 04:56:00,-999.0,-99.9,30.11,North,-999,-999.0,0.0,-999,0.00,,,0.00,WeatherCatV1.01B143,2013-08-21 08:56:00,
2013-08-21 05:01:00,-999.0,-99.9,30.11,North,-999,-999.0,0.0,-999,0.00,,,0.00,WeatherCatV1.01B143,2013-08-21 09:01:00,
2013-08-21 05:06:00,-999.0,-99.9,30.11,North,-999,-999.0,0.0,-999,0.00,,,0.00,WeatherCatV1.01B143,2013-08-21 09:06:00,
2013-08-21 05:11:00,-999.0,-99.9,30.11,North,-999,-999.0,0.0,-999,0.00,,,0.00,WeatherCatV1.01B143,2013-08-21 09:11:00,
2013-08-21 05:16:00,-999.0,-99.9,30.11,North,-999,-999.0,0.0,-999,0.00,,,0.00,WeatherCatV1.01B143,2013-08-21 09:16:00,
2013-08-21 05:21:00,-999.0,-99.9,30.11,North,-999,-999.0,0.0,-999,0.00,,,0.00,WeatherCatV1.01B143,2013-08-21 09:21:00,
2013-08-21 05:26:00,-999.0,-99.9,30.11,North,-999,-999.0,0.0,-999,0.00,,,0.00,WeatherCatV1.01B143,2013-08-21 09:26:00,
2013-08-21 05:31:00,-999.0,-99.9,30.11,North,-999,-999.0,0.0,-999,0.00,,,0.00,WeatherCatV1.01B143,2013-08-21 09:31:00,
2013-08-21 05:36:00,-999.0,-99.9,30.11,North,-999,-999.0,0.0,-999,0.00,,,0.00,WeatherCatV1.01B143,2013-08-21 09:36:00,
2013-08-21 05:41:00,-999.0,-99.9,30.12,North,-999,-999.0,0.0,-999,0.00,,,0.00,WeatherCatV1.01B143,2013-08-21 09:41:00,
2013-08-21 05:46:00,-999.0,-99.9,30.12,North,-999,-999.0,0.0,-999,0.00,,,0.00,WeatherCatV1.01B143,2013-08-21 09:46:00,
2013-08-21 05:51:00,-999.0,-99.9,30.12,North,-999,-999.0,0.0,-999,0.00,,,0.00,WeatherCatV1.01B143,2013-08-21 09:51:00,
2013-08-21 05:56:00,-999.0,-99.9,30.12,North,-999,-999.0,0.0,-999,0.00,,,0.00,WeatherCatV1.01B143,2013-08-21 09:56:00,
2013-08-21 06:01:00,-999.0,-99.9,30.12,North,-999,-999.0,0.0,-999,0.00,,,0.00,WeatherCatV1.01B143,2013-08-21 10:01:00,
2013-08-21 06:06:00,-999.0,-99.9,30.12,North,-999,-999.0,0.0,-999,0.00,,,0.00,WeatherCatV1.01B143,2013-08-21 10:06:00,
2013-08-21 06:11:00,-999.0,-99.9,30.12,North,-999,-999.0,0.0,-999,0.00,,,0.00,WeatherCatV1.01B143,2013-08-21 10:11:00,
2013-08-21 06:16:00,-999.0,-99.9,30.12,North,-999,-999.0,0.0,-999,0.00,,,0.00,WeatherCatV1.01B143,2013-08-21 10:16:00,
2013-08-21 06:21:00,-999.0,-99.9,30.13,North,-999,-999.0,0.0,-999,0.00,,,0.00,WeatherCatV1.01B143,2013-08-21 10:21:00,
2013-08-21 06:26:00,-999.0,-99.9,30.12,North,-999,-999.0,0.0,-999,0.00,,,0.00,WeatherCatV1.01B143,2013-08-21 10:26:00,
2013-08-21 06:31:00,-999.0,-99.9,30.13,North,-999,-999.0,0.0,-999,0.00,,,0.00,WeatherCatV1.01B143,2013-08-21 10:31:00,
2013-08-21 06:36:00,67.2,64.2,30.13,West,271,2.0,2.0,90,0.00,,,0.00,WeatherCatV1.01B143,2013-08-21 10:36:00,
2013-08-21 06:41:00,67.2,64.2,30.13,WNW,298,1.0,2.0,90,0.00,,,0.00,WeatherCatV1.01B143,2013-08-21 10:41:00,
2013-08-21 06:46:00,67.3,64.3,30.13,WNW,301,1.0,1.0,90,0.00,,,0.00,WeatherCatV1.01B143,2013-08-21 10:46:00,
2013-08-21 06:51:00,67.5,64.5,30.13,WNW,301,0.0,0.0,90,0.00,,,0.00,WeatherCatV1.01B143,2013-08-21 10:51:00,
2013-08-21 06:56:00,67.8,64.8,30.13,WNW,301,0.0,0.0,90,0.00,,,0.00,WeatherCatV1.01B143,2013-08-21 10:56:00,
2013-08-21 07:01:00,68.0,64.6,30.13,West,263,1.0,1.0,89,0.00,,,0.00,WeatherCatV1.01B143,2013-08-21 11:01:00,
2013-08-21 07:06:00,67.9,64.5,30.13,WNW,299,2.0,2.0,89,0.00,,,0.00,WeatherCatV1.01B143,2013-08-21 11:06:00,
2013-08-21 07:11:00,68.0,64.6,30.13,WNW,301,2.0,3.0,89,0.00,,,0.00,WeatherCatV1.01B143,2013-08-21 11:11:00,
2013-08-21 07:16:00,68.3,64.9,30.14,WNW,287,0.0,1.0,89,0.00,,,0.00,WeatherCatV1.01B143,2013-08-21 11:16:00,
2013-08-21 07:21:00,68.6,64.9,30.14,WNW,297,1.0,2.0,88,0.00,,,0.00,WeatherCatV1.01B143,2013-08-21 11:21:00,
2013-08-21 07:26:00,69.1,65.4,30.14,WNW,295,0.0,1.0,88,0.00,,,0.00,WeatherCatV1.01B143,2013-08-21 11:26:00,
2013-08-21 07:31:00,69.5,65.8,30.14,WNW,282,0.0,3.0,88,0.00,,,0.00,WeatherCatV1.01B143,2013-08-21 11:31:00,
2013-08-21 07:36:00,69.7,66.0,30.14,WNW,291,4.0,4.0,88,0.00,,,0.00,WeatherCatV1.01B143,2013-08-21 11:36:00,
2013-08-21 07:41:00,69.9,65.8,30.14,WNW,292,3.0,4.0,87,0.00,,,0.00,WeatherCatV1.01B143,2013-08-21 11:41:00,
2013-08-21 07:46:00,69.9,65.8,30.14,WNW,293,3.0,3.0,87,0.00,,,0.00,WeatherCatV1.01B143,2013-08-21 11:46:00,
2013-08-21 07:51:00,70.1,66.0,30.14,WNW,297,3.0,3.0,87,0.00,,,0.00,WeatherCatV1.01B143,2013-08-21 11:51:00,
2013-08-21 07:56:00,70.6,66.2,30.14,WNW,301,3.0,3.0,86,0.00,,,0.00,WeatherCatV1.01B143,2013-08-21 11:56:00,
2013-08-21 08:01:00,70.8,66.1,30.14,WNW,301,1.0,2.0,85,0.00,,,0.00,WeatherCatV1.01B143,2013-08-21 12:01:00,
2013-08-21 08:06:00,71.1,66.0,30.14,WNW,285,1.0,1.0,84,0.00,,,0.00,WeatherCatV1.01B143,2013-08-21 12:06:00,
2013-08-21 08:11:00,71.4,66.0,30.14,WNW,282,1.0,3.0,83,0.00,,,0.00,WeatherCatV1.01B143,2013-08-21 12:11:00,
2013-08-21 08:16:00,71.4,66.0,30.14,WSW,254,2.0,3.0,83,0.00,,,0.00,WeatherCatV1.01B143,2013-08-21 12:16:00,
2013-08-21 08:21:00,71.1,65.3,30.14,West,263,4.0,4.0,82,0.00,,,0.00,WeatherCatV1.01B143,2013-08-21 12:21:00,
2013-08-21 08:26:00,71.1,65.3,30.14,West,259,4.0,4.0,82,0.00,,,0.00,WeatherCatV1.01B143,2013-08-21 12:26:00,
2013-08-21 08:31:00,70.8,65.0,30.14,WNW,287,3.0,4.0,82,0.00,,,0.00,WeatherCatV1.01B143,2013-08-21 12:31:00,
2013-08-21 08:36:00,70.6,65.2,30.14,WNW,290,2.0,4.0,83,0.00,,,0.00,WeatherCatV1.01B143,2013-08-21 12:36:00,
2013-08-21 08:42:00,71.0,65.6,30.14,WNW,287,4.0,4.0,83,0.00,,,0.00,WeatherCatV1.01B143,2013-08-21 12:42:00,
2013-08-21 08:47:00,71.4,65.6,30.13,West,260,4.0,4.0,82,0.00,,,0.00,WeatherCatV1.01B143,2013-08-21 12:47:00,
2013-08-21 08:52:00,71.1,65.3,30.13,West,267,4.0,4.0,82,0.00,,,0.00,WeatherCatV1.01B143,2013-08-21 12:52:00,
2013-08-21 08:57:00,70.7,65.3,30.14,West,269,4.0,5.0,83,0.00,,,0.00,WeatherCatV1.01B143,2013-08-21 12:57:00,
2013-08-21 09:02:00,71.4,66.6,30.14,West,259,1.0,2.0,85,0.00,,,0.00,WeatherCatV1.01B143,2013-08-21 13:02:00,
2013-08-21 09:07:00,71.6,66.2,30.14,WSW,256,1.0,2.0,83,0.00,,,0.00,WeatherCatV1.01B143,2013-08-21 13:07:00,
2013-08-21 09:12:00,71.5,65.7,30.14,West,261,3.0,4.0,82,0.00,,,0.00,WeatherCatV1.01B143,2013-08-21 13:12:00,
2013-08-21 09:17:00,71.1,65.7,30.14,West,279,2.0,3.0,83,0.00,,,0.00,WeatherCatV1.01B143,2013-08-21 13:17:00,
2013-08-21 09:22:00,71.0,65.9,30.14,SW,214,1.0,1.0,84,0.00,,,0.00,WeatherCatV1.01B143,2013-08-21 13:22:00,
2013-08-21 09:27:00,71.1,66.7,30.14,SSW,202,0.0,2.0,86,0.00,,,0.00,WeatherCatV1.01B143,2013-08-21 13:27:00,
2013-08-21 09:32:00,70.9,66.2,30.14,West,261,4.0,5.0,85,0.00,,,0.00,WeatherCatV1.01B143,2013-08-21 13:32:00,
2013-08-21 09:37:00,70.8,66.4,30.14,WSW,249,5.0,5.0,86,0.00,,,0.00,WeatherCatV1.01B143,2013-08-21 13:37:00,
2013-08-21 09:42:00,70.5,66.4,30.14,West,273,2.0,5.0,87,0.00,,,0.00,WeatherCatV1.01B143,2013-08-21 13:42:00,
2013-08-21 09:47:00,70.4,66.7,30.14,West,259,4.0,5.0,88,0.00,,,0.00,WeatherCatV1.01B143,2013-08-21 13:47:00,
2013-08-21 09:52:00,70.5,66.8,30.14,West,260,4.0,4.0,88,0.00,,,0.00,WeatherCatV1.01B143,2013-08-21 13:52:00,
2013-08-21 09:57:00,70.5,66.8,30.13,West,263,5.0,6.0,88,0.00,,,0.00,WeatherCatV1.01B143,2013-08-21 13:57:00,
2013-08-21 10:02:00,70.7,66.6,30.13,West,263,6.0,6.0,87,0.00,,,0.00,WeatherCatV1.01B143,2013-08-21 14:02:00,
2013-08-21 10:07:00,70.9,66.8,30.13,West,271,3.0,4.0,87,0.00,,,0.00,WeatherCatV1.01B143,2013-08-21 14:07:00,
2013-08-21 10:12:00,70.7,67.0,30.13,West,261,5.0,7.0,88,0.00,,,0.00,WeatherCatV1.01B143,2013-08-21 14:12:00,
2013-08-21 10:17:00,71.1,66.7,30.13,West,261,5.0,7.0,86,0.00,,,0.00,WeatherCatV1.01B143,2013-08-21 14:17:00,
2013-08-21 10:22:00,71.1,67.4,30.13,WSW,239,2.0,4.0,88,0.00,,,0.00,WeatherCatV1.01B143,2013-08-21 14:22:00,
2013-08-21 10:27:00,71.0,67.3,30.13,West,265,2.0,4.0,88,0.00,,,0.00,WeatherCatV1.01B143,2013-08-21 14:27:00,
2013-08-21 10:32:00,71.0,67.3,30.13,West,271,4.0,5.0,88,0.00,,,0.00,WeatherCatV1.01B143,2013-08-21 14:32:00,
2013-08-21 10:37:00,71.0,67.3,30.13,WSW,253,2.0,4.0,88,0.00,,,0.00,WeatherCatV1.01B143,2013-08-21 14:37:00,
2013-08-21 10:42:00,71.4,67.7,30.13,SSW,210,0.0,3.0,88,0.00,,,0.00,WeatherCatV1.01B143,2013-08-21 14:42:00,
2013-08-21 10:47:00,71.6,67.8,30.13,WSW,249,1.0,4.0,88,0.00,,,0.00,WeatherCatV1.01B143,2013-08-21 14:47:00,
2013-08-21 10:52:00,71.9,68.1,30.13,West,259,4.0,4.0,88,0.00,,,0.00,WeatherCatV1.01B143,2013-08-21 14:52:00,
2013-08-21 10:57:00,71.8,68.0,30.13,West,259,2.0,6.0,88,0.00,,,0.00,WeatherCatV1.01B143,2013-08-21 14:57:00,
2013-08-21 11:02:00,72.0,68.2,30.13,SW,234,1.0,3.0,88,0.00,,,0.00,WeatherCatV1.01B143,2013-08-21 15:02:00,
2013-08-21 11:07:00,71.9,68.1,30.13,SW,228,2.0,4.0,88,0.00,,,0.00,WeatherCatV1.01B143,2013-08-21 15:07:00,
2013-08-21 11:12:00,72.0,68.2,30.13,West,264,3.0,6.0,88,0.00,,,0.00,WeatherCatV1.01B143,2013-08-21 15:12:00,
2013-08-21 11:17:00,71.9,68.1,30.13,WSW,242,6.0,7.0,88,0.00,,,0.00,WeatherCatV1.01B143,2013-08-21 15:17:00,
2013-08-21 11:22:00,71.7,67.9,30.13,WSW,252,8.0,9.0,88,0.00,,,0.00,WeatherCatV1.01B143,2013-08-21 15:22:00,
2013-08-21 11:27:00,71.7,68.3,30.13,WSW,250,7.0,8.0,89,0.00,,,0.00,WeatherCatV1.01B143,2013-08-21 15:27:00,
2013-08-21 11:32:00,71.8,68.0,30.13,WSW,256,7.0,8.0,88,0.00,,,0.00,WeatherCatV1.01B143,2013-08-21 15:32:00,
2013-08-21 11:37:00,71.8,68.0,30.13,SSW,192,3.0,4.0,88,0.00,,,0.00,WeatherCatV1.01B143,2013-08-21 15:37:00,
2013-08-21 11:42:00,72.0,68.2,30.13,West,278,3.0,5.0,88,0.00,,,0.00,WeatherCatV1.01B143,2013-08-21 15:42:00,
2013-08-21 11:47:00,72.2,68.4,30.13,WSW,251,4.0,4.0,88,0.00,,,0.00,WeatherCatV1.01B143,2013-08-21 15:47:00,
2013-08-21 11:52:00,72.3,68.5,30.13,West,261,4.0,4.0,88,0.00,,,0.00,WeatherCatV1.01B143,2013-08-21 15:52:00,
2013-08-21 11:57:00,72.4,68.6,30.13,West,263,6.0,6.0,88,0.00,,,0.00,WeatherCatV1.01B143,2013-08-21 15:57:00,
2013-08-21 12:02:00,72.3,68.9,30.13,SW,227,5.0,8.0,89,0.00,,,0.00,WeatherCatV1.01B143,2013-08-21 16:02:00,
2013-08-21 12:07:00,72.3,68.5,30.13,WSW,249,6.0,7.0,88,0.00,,,0.00,WeatherCatV1.01B143,2013-08-21 16:07:00,
2013-08-21 12:12:00,72.5,69.1,30.13,West,263,7.0,9.0,89,0.00,,,0.00,WeatherCatV1.01B143,2013-08-21 16:12:00,
2013-08-21 12:17:00,72.4,68.6,30.13,West,261,6.0,9.0,88,0.00,,,0.00,WeatherCatV1.01B143,2013-08-21 16:17:00,
2013-08-21 12:22:00,72.6,69.2,30.13,WSW,256,10.0,10.0,89,0.00,,,0.00,WeatherCatV1.01B143,2013-08-21 16:22:00,
2013-08-21 12:27:00,72.9,69.1,30.12,West,264,7.0,11.0,88,0.00,,,0.00,WeatherCatV1.01B143,2013-08-21 16:27:00,
2013-08-21 12:32:00,72.7,68.9,30.12,West,264,8.0,10.0,88,0.00,,,0.00,WeatherCatV1.01B143,2013-08-21 16:32:00,
2013-08-21 12:37:00,72.5,68.7,30.12,WSW,256,9.0,10.0,88,0.00,,,0.00,WeatherCatV1.01B143,2013-08-21 16:37:00,
2013-08-21 12:42:00,72.8,69.4,30.12,WSW,245,9.0,10.0,89,0.00,,,0.00,WeatherCatV1.01B143,2013-08-21 16:42:00,
2013-08-21 12:47:00,72.9,69.5,30.12,West,264,9.0,11.0,89,0.00,,,0.00,WeatherCatV1.01B143,2013-08-21 16:47:00,
2013-08-21 12:52:00,72.9,69.1,30.12,West,260,8.0,13.0,88,0.00,,,0.00,WeatherCatV1.01B143,2013-08-21 16:52:00,
2013-08-21 12:57:00,72.9,69.1,30.12,West,270,13.0,13.0,88,0.00,,,0.00,WeatherCatV1.01B143,2013-08-21 16:57:00,
2013-08-21 13:02:00,72.9,69.1,30.12,West,266,9.0,13.0,88,0.00,,,0.00,WeatherCatV1.01B143,2013-08-21 17:02:00,
2013-08-21 13:07:00,73.2,69.4,30.12,WSW,256,8.0,10.0,88,0.00,,,0.00,WeatherCatV1.01B143,2013-08-21 17:07:00,
2013-08-21 13:12:00,73.2,69.1,30.11,West,273,9.0,11.0,87,0.00,,,0.00,WeatherCatV1.01B143,2013-08-21 17:12:00,
2013-08-21 13:17:00,73.3,69.5,30.11,WSW,246,4.0,11.0,88,0.00,,,0.00,WeatherCatV1.01B143,2013-08-21 17:17:00,
2013-08-21 13:22:00,73.3,69.2,30.11,West,266,5.0,12.0,87,0.00,,,0.00,WeatherCatV1.01B143,2013-08-21 17:22:00,
2013-08-21 13:27:00,73.5,69.7,30.11,WSW,256,7.0,10.0,88,0.00,,,0.00,WeatherCatV1.01B143,2013-08-21 17:27:00,
2013-08-21 13:32:00,73.6,69.1,30.11,WNW,285,4.0,11.0,86,0.00,,,0.00,WeatherCatV1.01B143,2013-08-21 17:32:00,
2013-08-21 13:37:00,73.6,69.5,30.11,WSW,250,7.0,11.0,87,0.00,,,0.00,WeatherCatV1.01B143,2013-08-21 17:37:00,
2013-08-21 13:42:00,74.0,69.9,30.11,WSW,254,7.0,10.0,87,0.00,,,0.00,WeatherCatV1.01B143,2013-08-21 17:42:00,
2013-08-21 13:47:00,73.8,69.3,30.11,West,273,9.0,9.0,86,0.00,,,0.00,WeatherCatV1.01B143,2013-08-21 17:47:00,
2013-08-21 13:52:00,73.7,69.2,30.11,West,264,6.0,9.0,86,0.00,,,0.00,WeatherCatV1.01B143,2013-08-21 17:52:00,
2013-08-21 13:57:00,74.2,69.0,30.10,West,271,7.0,11.0,84,0.00,,,0.00,WeatherCatV1.01B143,2013-08-21 17:57:00,
2013-08-21 14:02:00,74.3,69.1,30.10,West,277,8.0,10.0,84,0.00,,,0.00,WeatherCatV1.01B143,2013-08-21 18:02:00,
2013-08-21 14:07:00,74.6,69.8,30.10,West,281,9.0,9.0,85,0.00,,,0.00,WeatherCatV1.01B143,2013-08-21 18:07:00,
2013-08-21 14:12:00,74.8,69.3,30.09,WSW,242,6.0,9.0,83,0.00,,,0.00,WeatherCatV1.01B143,2013-08-21 18:12:00,
2013-08-21 14:17:00,74.2,69.0,30.09,WSW,252,5.0,9.0,84,0.00,,,0.00,WeatherCatV1.01B143,2013-08-21 18:17:00,
2013-08-21 14:22:00,74.5,69.3,30.09,WNW,282,5.0,8.0,84,0.00,,,0.00,WeatherCatV1.01B143,2013-08-21 18:22:00,
2013-08-21 14:29:00,75.3,70.1,30.09,West,267,5.0,7.0,84,0.00,,,0.00,WeatherCatV1.01B143,2013-08-21 18:29:00,
2013-08-21 14:34:00,75.1,69.9,30.09,WSW,254,5.0,6.0,84,0.00,,,0.00,WeatherCatV1.01B143,2013-08-21 18:34:00,
2013-08-21 14:39:00,75.0,69.8,30.09,West,260,4.0,6.0,84,0.00,,,0.00,WeatherCatV1.01B143,2013-08-21 18:39:00,
2013-08-21 14:44:00,75.1,69.9,30.09,WSW,240,4.0,7.0,84,0.00,,,0.00,WeatherCatV1.01B143,2013-08-21 18:44:00,
2013-08-21 14:49:00,75.1,69.9,30.09,West,262,4.0,5.0,84,0.00,,,0.00,WeatherCatV1.01B143,2013-08-21 18:49:00,
2013-08-21 14:54:00,75.1,70.3,30.09,West,274,3.0,8.0,85,0.00,,,0.00,WeatherCatV1.01B143,2013-08-21 18:54:00,
2013-08-21 14:59:00,75.7,70.9,30.09,WSW,250,4.0,7.0,85,0.00,,,0.00,WeatherCatV1.01B143,2013-08-21 18:59:00,
2013-08-21 15:04:00,75.9,70.7,30.09,WSW,251,7.0,8.0,84,0.00,,,0.00,WeatherCatV1.01B143,2013-08-21 19:04:00,
2013-08-21 15:09:00,75.6,70.8,30.08,WSW,247,5.0,9.0,85,0.00,,,0.00,WeatherCatV1.01B143,2013-08-21 19:09:00,
2013-08-21 15:14:00,75.8,71.0,30.08,West,269,7.0,9.0,85,0.00,,,0.00,WeatherCatV1.01B143,2013-08-21 19:14:00,
2013-08-21 15:19:00,76.0,71.2,30.08,West,271,6.0,9.0,85,0.00,,,0.00,WeatherCatV1.01B143,2013-08-21 19:19:00,
2013-08-21 15:24:00,76.1,70.9,30.08,West,267,7.0,9.0,84,0.00,,,0.00,WeatherCatV1.01B143,2013-08-21 19:24:00,
2013-08-21 15:29:00,76.3,71.4,30.08,West,271,8.0,9.0,85,0.00,,,0.00,WeatherCatV1.01B143,2013-08-21 19:29:00,
2013-08-21 15:34:00,76.4,71.2,30.08,West,259,6.0,9.0,84,0.00,,,0.00,WeatherCatV1.01B143,2013-08-21 19:34:00,
2013-08-21 15:39:00,76.4,70.8,30.08,WSW,253,6.0,8.0,83,0.00,,,0.00,WeatherCatV1.01B143,2013-08-21 19:39:00,
2013-08-21 15:44:00,76.5,70.6,30.08,WSW,252,6.0,9.0,82,0.00,,,0.00,WeatherCatV1.01B143,2013-08-21 19:44:00,
2013-08-21 15:49:00,76.7,71.1,30.08,West,278,9.0,11.0,83,0.00,,,0.00,WeatherCatV1.01B143,2013-08-21 19:49:00,
2013-08-21 15:54:00,77.2,71.3,30.07,WSW,254,7.0,10.0,82,0.00,,,0.00,WeatherCatV1.01B143,2013-08-21 19:54:00,
2013-08-21 15:59:00,77.2,71.3,30.07,West,281,11.0,12.0,82,0.00,,,0.00,WeatherCatV1.01B143,2013-08-21 19:59:00,
2013-08-21 16:04:00,77.2,70.9,30.07,WNW,287,7.0,12.0,81,0.00,,,0.00,WeatherCatV1.01B143,2013-08-21 20:04:00,
2013-08-21 16:09:00,77.2,70.9,30.07,West,259,7.0,11.0,81,0.00,,,0.00,WeatherCatV1.01B143,2013-08-21 20:09:00,
2013-08-21 16:14:00,77.3,71.0,30.07,West,279,8.0,11.0,81,0.00,,,0.00,WeatherCatV1.01B143,2013-08-21 20:14:00,
2013-08-21 16:19:00,77.2,70.5,30.07,West,269,7.0,11.0,80,0.00,,,0.00,WeatherCatV1.01B143,2013-08-21 20:19:00,
2013-08-21 16:24:00,76.9,70.6,30.07,West,267,9.0,11.0,81,0.00,,,0.00,WeatherCatV1.01B143,2013-08-21 20:24:00,
2013-08-21 16:29:00,77.0,70.7,30.07,WNW,285,4.0,9.0,81,0.00,,,0.00,WeatherCatV1.01B143,2013-08-21 20:29:00,
2013-08-21 16:34:00,77.1,70.8,30.07,WNW,282,6.0,10.0,81,0.00,,,0.00,WeatherCatV1.01B143,2013-08-21 20:34:00,
2013-08-21 16:41:00,77.0,70.7,30.07,West,274,5.0,6.0,81,0.00,,,0.00,WeatherCatV1.01B143,2013-08-21 20:41:00,
2013-08-21 16:46:00,77.0,71.1,30.07,SW,230,4.0,6.0,82,0.00,,,0.00,WeatherCatV1.01B143,2013-08-21 20:46:00,
2013-08-21 16:51:00,76.9,70.6,30.07,West,264,8.0,8.0,81,0.00,,,0.00,WeatherCatV1.01B143,2013-08-21 20:51:00,
2013-08-21 16:56:00,76.8,70.5,30.06,West,260,5.0,9.0,81,0.00,,,0.00,WeatherCatV1.01B143,2013-08-21 20:56:00,
2013-08-21 17:01:00,76.7,70.4,30.06,WSW,237,5.0,10.0,81,0.00,,,0.00,WeatherCatV1.01B143,2013-08-21 21:01:00,
2013-08-21 17:06:00,77.0,70.7,30.06,West,278,7.0,11.0,81,0.00,,,0.00,WeatherCatV1.01B143,2013-08-21 21:06:00,
2013-08-21 17:11:00,77.3,70.3,30.06,West,264,8.0,10.0,79,0.00,,,0.00,WeatherCatV1.01B143,2013-08-21 21:11:00,
2013-08-21 17:16:00,77.2,70.5,30.06,West,264,6.0,8.0,80,0.00,,,0.00,WeatherCatV1.01B143,2013-08-21 21:16:00,
2013-08-21 17:21:00,76.4,70.1,30.06,WSW,256,5.0,7.0,81,0.00,,,0.00,WeatherCatV1.01B143,2013-08-21 21:21:00,
2013-08-21 17:26:00,76.2,70.3,30.05,West,273,6.0,7.0,82,0.00,,,0.00,WeatherCatV1.01B143,2013-08-21 21:26:00,
2013-08-21 17:31:00,76.3,70.4,30.05,West,260,5.0,7.0,82,0.00,,,0.00,WeatherCatV1.01B143,2013-08-21 21:31:00,
2013-08-21 17:36:00,76.3,70.0,30.05,West,261,7.0,9.0,81,0.00,,,0.00,WeatherCatV1.01B143,2013-08-21 21:36:00,
2013-08-21 17:41:00,76.0,69.7,30.05,West,269,6.0,10.0,81,0.00,,,0.00,WeatherCatV1.01B143,2013-08-21 21:41:00,
2013-08-21 17:46:00,75.9,70.0,30.05,West,278,1.0,7.0,82,0.00,,,0.00,WeatherCatV1.01B143,2013-08-21 21:46:00,
2013-08-21 17:51:00,76.2,70.3,30.04,West,275,4.0,5.0,82,0.00,,,0.00,WeatherCatV1.01B143,2013-08-21 21:51:00,
2013-08-21 17:56:00,76.0,70.1,30.04,West,273,4.0,7.0,82,0.00,,,0.00,WeatherCatV1.01B143,2013-08-21 21:56:00,
2013-08-21 18:01:00,75.8,69.9,30.04,West,263,4.0,6.0,82,0.00,,,0.00,WeatherCatV1.01B143,2013-08-21 22:01:00,
2013-08-21 18:06:00,75.7,69.8,30.04,West,271,5.0,7.0,82,0.00,,,0.00,WeatherCatV1.01B143,2013-08-21 22:06:00,
2013-08-21 18:11:00,75.5,69.6,30.04,West,263,4.0,7.0,82,0.00,,,0.00,WeatherCatV1.01B143,2013-08-21 22:11:00,
2013-08-21 18:16:00,75.3,69.4,30.05,West,265,6.0,9.0,82,0.00,,,0.00,WeatherCatV1.01B143,2013-08-21 22:16:00,
2013-08-21 18:21:00,75.0,69.1,30.05,West,260,7.0,8.0,82,0.00,,,0.00,WeatherCatV1.01B143,2013-08-21 22:21:00,
2013-08-21 18:26:00,74.8,68.9,30.05,West,264,9.0,11.0,82,0.00,,,0.00,WeatherCatV1.01B143,2013-08-21 22:26:00,
2013-08-21 18:31:00,74.6,68.4,30.05,West,260,8.0,11.0,81,0.00,,,0.00,WeatherCatV1.01B143,2013-08-21 22:31:00,
2013-08-21 18:36:00,74.4,68.2,30.05,WNW,287,6.0,10.0,81,0.00,,,0.00,WeatherCatV1.01B143,2013-08-21 22:36:00,
2013-08-21 18:41:00,74.1,67.9,30.05,West,280,5.0,10.0,81,0.00,,,0.00,WeatherCatV1.01B143,2013-08-21 22:41:00,
2013-08-21 18:46:00,74.0,67.8,30.05,West,281,4.0,8.0,81,0.00,,,0.00,WeatherCatV1.01B143,2013-08-21 22:46:00,
2013-08-21 18:51:00,73.7,67.5,30.05,West,273,4.0,8.0,81,0.00,,,0.00,WeatherCatV1.01B143,2013-08-21 22:51:00,
2013-08-21 18:56:00,73.2,67.0,30.05,West,271,3.0,7.0,81,0.00,,,0.00,WeatherCatV1.01B143,2013-08-21 22:56:00,
2013-08-21 19:01:00,72.8,67.0,30.05,WSW,253,5.0,7.0,82,0.00,,,0.00,WeatherCatV1.01B143,2013-08-21 23:01:00,
2013-08-21 19:06:00,72.6,67.1,30.04,WNW,282,4.0,6.0,83,0.00,,,0.00,WeatherCatV1.01B143,2013-08-21 23:06:00,
2013-08-21 19:11:00,72.4,67.3,30.04,West,281,3.0,6.0,84,0.00,,,0.00,WeatherCatV1.01B143,2013-08-21 23:11:00,
2013-08-21 19:16:00,72.2,67.1,30.04,WNW,291,3.0,6.0,84,0.00,,,0.00,WeatherCatV1.01B143,2013-08-21 23:16:00,
2013-08-21 19:21:00,72.1,67.0,30.04,West,273,2.0,6.0,84,0.00,,,0.00,WeatherCatV1.01B143,2013-08-21 23:21:00,
2013-08-21 19:26:00,72.1,67.0,30.04,WNW,287,1.0,2.0,84,0.00,,,0.00,WeatherCatV1.01B143,2013-08-21 23:26:00,
2013-08-21 19:31:00,71.9,67.1,30.04,West,278,4.0,4.0,85,0.00,,,0.00,WeatherCatV1.01B143,2013-08-21 23:31:00,
2013-08-21 19:36:00,71.8,67.0,30.04,West,278,1.0,4.0,85,0.00,,,0.00,WeatherCatV1.01B143,2013-08-21 23:36:00,
2013-08-21 19:41:00,71.6,66.8,30.04,West,277,2.0,4.0,85,0.00,,,0.00,WeatherCatV1.01B143,2013-08-21 23:41:00,
2013-08-21 19:46:00,71.5,67.1,30.04,WNW,285,2.0,4.0,86,0.00,,,0.00,WeatherCatV1.01B143,2013-08-21 23:46:00,
2013-08-21 19:51:00,71.3,66.9,30.04,West,277,3.0,3.0,86,0.00,,,0.00,WeatherCatV1.01B143,2013-08-21 23:51:00,
2013-08-21 19:56:00,71.3,66.9,30.04,NW,313,3.0,4.0,86,0.00,,,0.00,WeatherCatV1.01B143,2013-08-21 23:56:00,
2013-08-21 20:01:00,71.2,66.8,30.05,West,271,4.0,7.0,86,0.00,,,0.00,WeatherCatV1.01B143,2013-08-22 00:01:00,
2013-08-21 20:06:00,71.2,67.1,30.05,West,278,5.0,10.0,87,0.00,,,0.00,WeatherCatV1.01B143,2013-08-22 00:06:00,
2013-08-21 20:11:00,71.2,67.1,30.05,West,273,6.0,8.0,87,0.00,,,0.00,WeatherCatV1.01B143,2013-08-22 00:11:00,
2013-08-21 20:16:00,71.1,67.0,30.05,West,273,6.0,8.0,87,0.00,,,0.00,WeatherCatV1.01B143,2013-08-22 00:16:00,
2013-08-21 20:21:00,71.0,67.3,30.05,WNW,287,5.0,8.0,88,0.00,,,0.00,WeatherCatV1.01B143,2013-08-22 00:21:00,
2013-08-21 20:26:00,71.0,67.3,30.05,WNW,287,4.0,6.0,88,0.00,,,0.00,WeatherCatV1.01B143,2013-08-22 00:26:00,
2013-08-21 20:31:00,70.9,67.2,30.05,WNW,295,3.0,7.0,88,0.00,,,0.00,WeatherCatV1.01B143,2013-08-22 00:31:00,
2013-08-21 20:36:00,70.8,67.4,30.05,West,271,5.0,6.0,89,0.00,,,0.00,WeatherCatV1.01B143,2013-08-22 00:36:00,
2013-08-21 20:41:00,70.8,67.4,30.05,West,277,6.0,6.0,89,0.00,,,0.00,WeatherCatV1.01B143,2013-08-22 00:41:00,
2013-08-21 20:46:00,70.8,67.4,30.05,West,273,6.0,6.0,89,0.00,,,0.00,WeatherCatV1.01B143,2013-08-22 00:46:00,
2013-08-21 20:51:00,70.7,67.3,30.05,WNW,287,4.0,6.0,89,0.00,,,0.00,WeatherCatV1.01B143,2013-08-22 00:51:00,
2013-08-21 20:56:00,70.6,67.5,30.05,WNW,282,6.0,6.0,90,0.00,,,0.00,WeatherCatV1.01B143,2013-08-22 00:56:00,
2013-08-21 21:01:00,70.5,67.4,30.05,West,277,6.0,6.0,90,0.00,,,0.00,WeatherCatV1.01B143,2013-08-22 01:01:00,
2013-08-21 21:06:00,70.4,67.3,30.05,West,269,5.0,7.0,90,0.00,,,0.00,WeatherCatV1.01B143,2013-08-22 01:06:00,
2013-08-21 21:11:00,70.3,67.2,30.05,WNW,298,3.0,6.0,90,0.00,,,0.00,WeatherCatV1.01B143,2013-08-22 01:11:00,
2013-08-21 21:16:00,70.2,67.1,30.05,West,278,4.0,5.0,90,0.00,,,0.00,WeatherCatV1.01B143,2013-08-22 01:16:00,
2013-08-21 21:21:00,70.1,67.0,30.05,West,274,3.0,7.0,90,0.00,,,0.00,WeatherCatV1.01B143,2013-08-22 01:21:00,
2013-08-21 21:26:00,70.1,67.0,30.05,WNW,287,3.0,5.0,90,0.00,,,0.00,WeatherCatV1.01B143,2013-08-22 01:26:00,
2013-08-21 21:31:00,70.1,67.0,30.05,WNW,283,4.0,6.0,90,0.00,,,0.00,WeatherCatV1.01B143,2013-08-22 01:31:00,
2013-08-21 21:36:00,70.1,67.0,30.05,West,273,4.0,4.0,90,0.00,,,0.00,WeatherCatV1.01B143,2013-08-22 01:36:00,
2013-08-21 21:41:00,70.1,67.0,30.05,WNW,282,3.0,5.0,90,0.00,,,0.00,WeatherCatV1.01B143,2013-08-22 01:41:00,
2013-08-21 21:46:00,70.1,67.0,30.05,WNW,290,5.0,6.0,90,0.00,,,0.00,WeatherCatV1.01B143,2013-08-22 01:46:00,
2013-08-21 21:51:00,70.1,67.0,30.05,WNW,282,4.0,7.0,90,0.00,,,0.00,WeatherCatV1.01B143,2013-08-22 01:51:00,
2013-08-21 21:56:00,70.2,67.1,30.05,NW,304,5.0,6.0,90,0.00,,,0.00,WeatherCatV1.01B143,2013-08-22 01:56:00,
2013-08-21 22:01:00,70.2,67.1,30.05,WNW,298,3.0,8.0,90,0.00,,,0.00,WeatherCatV1.01B143,2013-08-22 02:01:00,
2013-08-21 22:06:00,70.3,66.9,30.05,West,268,3.0,8.0,89,0.00,,,0.00,WeatherCatV1.01B143,2013-08-22 02:06:00,
2013-08-21 22:11:00,70.3,66.9,30.05,West,278,5.0,6.0,89,0.00,,,0.00,WeatherCatV1.01B143,2013-08-22 02:11:00,
2013-08-21 22:16:00,70.2,66.8,30.05,West,271,5.0,6.0,89,0.00,,,0.00,WeatherCatV1.01B143,2013-08-22 02:16:00,
2013-08-21 22:21:00,70.2,66.8,30.05,West,261,5.0,8.0,89,0.00,,,0.00,WeatherCatV1.01B143,2013-08-22 02:21:00,
2013-08-21 22:26:00,70.0,66.6,30.05,West,271,4.0,6.0,89,0.00,,,0.00,WeatherCatV1.01B143,2013-08-22 02:26:00,
2013-08-21 22:31:00,69.9,66.8,30.05,West,280,4.0,7.0,90,0.00,,,0.00,WeatherCatV1.01B143,2013-08-22 02:31:00,
2013-08-21 22:36:00,69.7,66.6,30.06,West,277,4.0,7.0,90,0.00,,,0.00,WeatherCatV1.01B143,2013-08-22 02:36:00,
2013-08-21 22:41:00,69.6,66.5,30.06,West,280,5.0,6.0,90,0.00,,,0.00,WeatherCatV1.01B143,2013-08-22 02:41:00,
2013-08-21 22:46:00,69.6,66.8,30.05,West,274,7.0,8.0,91,0.00,,,0.00,WeatherCatV1.01B143,2013-08-22 02:46:00,
2013-08-21 22:51:00,69.8,67.0,30.05,West,281,6.0,9.0,91,0.00,,,0.00,WeatherCatV1.01B143,2013-08-22 02:51:00,
2013-08-21 22:56:00,69.9,67.1,30.05,West,278,8.0,8.0,91,0.00,,,0.00,WeatherCatV1.01B143,2013-08-22 02:56:00,
2013-08-21 23:01:00,70.0,67.2,30.05,WNW,299,5.0,7.0,91,0.00,,,0.00,WeatherCatV1.01B143,2013-08-22 03:01:00,
2013-08-21 23:06:00,69.9,67.1,30.05,WNW,287,4.0,7.0,91,0.00,,,0.00,WeatherCatV1.01B143,2013-08-22 03:06:00,
2013-08-21 23:11:00,70.0,67.2,30.05,WNW,302,5.0,8.0,91,0.00,,,0.00,WeatherCatV1.01B143,2013-08-22 03:11:00,
2013-08-21 23:16:00,70.1,67.3,30.05,West,274,6.0,8.0,91,0.00,,,0.00,WeatherCatV1.01B143,2013-08-22 03:16:00,
2013-08-21 23:21:00,70.3,67.5,30.04,West,269,7.0,10.0,91,0.00,,,0.00,WeatherCatV1.01B143,2013-08-22 03:21:00,
2013-08-21 23:26:00,70.2,67.4,30.04,West,281,7.0,8.0,91,0.00,,,0.00,WeatherCatV1.01B143,2013-08-22 03:26:00,
2013-08-21 23:31:00,70.1,67.3,30.04,West,271,6.0,7.0,91,0.00,,,0.00,WeatherCatV1.01B143,2013-08-22 03:31:00,
2013-08-21 23:36:00,70.0,67.2,30.04,West,265,7.0,8.0,91,0.00,,,0.00,WeatherCatV1.01B143,2013-08-22 03:36:00,
2013-08-21 23:41:00,70.0,67.2,30.03,West,268,5.0,8.0,91,0.00,,,0.00,WeatherCatV1.01B143,2013-08-22 03:41:00,
2013-08-21 23:46:00,69.9,67.1,30.04,West,277,6.0,8.0,91,0.00,,,0.00,WeatherCatV1.01B143,2013-08-22 03:46:00,
2013-08-21 23:51:00,69.7,66.9,30.04,West,261,7.0,7.0,91,0.00,,,0.00,WeatherCatV1.01B143,2013-08-22 03:51:00,
2013-08-21 23:56:00,69.7,66.9,30.04,West,281,6.0,6.0,91,0.00,,,0.00,WeatherCatV1.01B143,2013-08-22 03:56:00,